Regional Weather Roundup
Issued by NWS

Home | Current Version | Previous Version | Graphics & Text | Print | Product List | Glossary On
Versions: 1 2 3 4 5 6 7 8 9 10 11 12 13 14 15 16 17 18 19 20 21 22 23 24 25 26 27 28 29 30 31 32 33 34 35 36 37 38 39 40 41 42 43 44 45 46 47 48 49 50
000
ASUS43 KFSD 291210
RWRSD

WEATHER ROUNDUP FOR SOUTH DAKOTA
NATIONAL WEATHER SERVICE SIOUX FALLS SD
700 AM CDT THU SEP 29 2016

NOTE: "FAIR" INDICATES FEW OR NO CLOUDS BELOW 12,000 FEET WITH NO
SIGNIFICANT WEATHER AND/OR OBSTRUCTIONS TO VISIBILITY.


SDZ001>005-009-010-012>017-291300-
NORTHWEST AND NORTH CENTRAL SOUTH DAKOTA

CITY           SKY/WX    TMP DP  RH WIND       PRES   REMARKS
BUFFALO          N/A     48  40  73 S6        30.23S
FAITH            N/A     44  42  93 SE14      30.33S
MOBRIDGE       CLEAR     45  41  86 E8        30.37S
$$

SDZ012>016-024>037-041>051-057-063-072>074-291300-
SOUTHWEST AND SOUTH CENTRAL SOUTH DAKOTA

CITY           SKY/WX    TMP DP  RH WIND       PRES   REMARKS
RAPID CTY ARPT CLEAR     41  33  73 SE7       30.31F
PIERRE         CLEAR     37  37 100 E3        30.39S FOG
CUSTER         CLEAR     42  35  76 NW5       30.38F
ELLSWORTH AFB  CLEAR     47  34  59 S6        30.30S
PHILIP         CLOUDY    40  39  97 E7        30.35F
PINE RIDGE     CLEAR     51  39  63 S8        30.34S
WINNER         FAIR      45  41  86 S7        30.42R
$$

SDZ004>011-016>023-039-040-291300-
NORTHEAST SOUTH DAKOTA

CITY           SKY/WX    TMP DP  RH WIND       PRES   REMARKS
ABERDEEN       FOG       34  33  96 CALM      30.45R VSB 1
WATERTOWN      CLOUDY    37  35  92 N3        30.45R FOG
BROOKINGS      CLOUDY    39  37  92 CALM      30.45R
SISSETON         N/A     35  33  92 CALM      30.46R
$$

SDZ017-020-022-023-036>040-048>070-291300-
SOUTHEAST SOUTH DAKOTA

CITY           SKY/WX    TMP DP  RH WIND       PRES   REMARKS
SIOUX FALLS    CLOUDY    41  40  96 CALM      30.44R
HURON          CLOUDY    39  39 100 CALM      30.44S
CHAMBERLAIN    CLOUDY    41  41 100 SE3       30.43R
MITCHELL       FOG       37  36  96 CALM      30.45R VSB 3/4
YANKTON        CLOUDY    41  39  93 CALM      30.42R
$$

ABBREVIATIONS USED IN REMARKS
   TC - TEMPERATURE IN CELSIUS
  WCI - WIND CHILL INDEX
   HX - HEAT INDEX
  VSB - VISIBILITY





USA.gov is the U.S. government's official web portal to all federal, state and local government web resources and services.